Location: Observatorio Las Palmas
(29.0667°N, 110.9333°W)
Time: 13:28:34
(UTC-07:00)

Hubble Space Telescope - Visible Passes

Search period start: 28 September 2016 00:00
Search period end: 08 October 2016 00:00
Orbit: 539 x 542 km, 28.5° (Epoch: 27 September)

Date Brightness Start Highest point End Pass type
(mag) Time Alt. Az. Time Alt. Az. Time Alt. Az.
28 Sep 3.4 03:58:57 15° SE 03:58:57 15° SE 03:59:42 10° SE visible
28 Sep 2.8 05:34:22 10° WSW 05:36:36 14° SSW 05:38:50 10° S visible
29 Sep 3.0 05:25:42 10° SW 05:26:42 11° SSW 05:27:41 10° SSW visible
02 Oct 3.5 20:18:34 10° SW 20:18:52 12° SW 20:18:52 12° SW visible
03 Oct 3.0 18:30:27 10° SSE 18:31:33 11° SSE 18:32:38 10° SE visible
03 Oct 3.0 20:08:31 10° SW 20:09:54 19° SW 20:09:54 19° SW visible
04 Oct 2.3 19:58:32 10° SW 20:00:53 29° SW 20:00:53 29° SW visible
05 Oct 1.6 19:48:37 10° WSW 19:51:47 43° SSW 19:51:47 43° SSW visible
06 Oct 0.9 19:38:44 10° WSW 19:42:38 60° S 19:42:38 60° S visible
07 Oct 0.7 19:28:53 10° WSW 19:33:01 69° S 19:33:25 63° SE visible
